Metis
metis
Inteligência cultural
Início
  • Meus projetos
  • Nova análiseAI
  • Prestação contas
  • Alertas
  • Favoritos
  • Chat IAAI
  • Insights IAAI
  • Newsletter
  • Relatórios
  • Oportunidades🔥
  • Projetos
  • Proponentes
  • Incentivadores
  • Fornecedores
  • Segmentos
  • Locais
  • Mapa Brasil
  • Estatísticas
  • Comparativos
  • Visão geral
  • Comparar
  • PNAB (Aldir Blanc)
  • Lei Paulo Gustavo
  • Cultura Afro
  • Bolsas
  • Minha conta
  • Filtros salvos
  • Configurações
Voltar📄 Gerar Relatório Completo
PRONAC 191644Apresentou prestação de contasMecenato

Domingo Clássico com Orquestra de Câmara da ULBRA

ASSOCIACAO DOS AMIGOS DE ORQUESTRA DE CAMARA
Solicitado
R$ 417,2 mil
Aprovado
R$ 417,2 mil
Captado
R$ 417,2 mil
Outras fontes
R$ 11,0 mil

Análise IA

Relacionamentos

Incentivadores (104)
CNPJ/CPFNomeDataValor
07707650000110AYMORE CREDITO, FINANCIAMENTO E INVESTIMENTO S.A.1900-01-01R$ 153,6 mil
***314409**PAULO TADEU HAENDCHEN1900-01-01R$ 12,0 mil
***753770**Rivail Cunha de Abreu1900-01-01R$ 11,0 mil
***039060**José Felipe Ledur1900-01-01R$ 10,0 mil
***633680**Sérgio Luiz Gomes Ferreira1900-01-01R$ 10,0 mil
***857358**André Leonardo Alves Seabra Salles1900-01-01R$ 10,0 mil
***215860**LUIS PEDRO CAUDURO FERREIRA1900-01-01R$ 7,0 mil
***737340**PATRICIA IOSCHPE GUS1900-01-01R$ 6,0 mil
***413580**Paulo Renato Petersen Behar1900-01-01R$ 6,0 mil
***800690**JOSE FRANCISCO FLORES1900-01-01R$ 6,0 mil
***992220**Teresinha J. Dossin1900-01-01R$ 6,0 mil
***889930**Marilde Perin Zarpellon1900-01-01R$ 5,6 mil
***959500**ANDRE STUMPF TRINDADE1900-01-01R$ 5,0 mil
***540539**MITIYO SHOJI ARAÚJO1900-01-01R$ 5,0 mil
***291027**VALERIO STUMPF TRINDADE1900-01-01R$ 5,0 mil
***236200**DOUGLAS MOACIR FLOR1900-01-01R$ 5,0 mil
***058700**ELSI MARIA BENETTI CRAVO1900-01-01R$ 4,8 mil
***516620**CONCEICAO SOUSA POESTER1900-01-01R$ 4,6 mil
***283720**Ângelo Estevão Prando1900-01-01R$ 4,6 mil
***256830**Ricardo Willy Rieth1900-01-01R$ 4,5 mil
***229050**TATIANA REZENDE SCHAFFAZICK1900-01-01R$ 4,0 mil
***540000**ANTONIO SERGIO KLEBANOWSKI MILAGRE1900-01-01R$ 4,0 mil
***415170**PAULO DECIO LUCCHESI1900-01-01R$ 4,0 mil
***690630**Rejane Behrends Sanches1900-01-01R$ 4,0 mil
***930830**GABRIELA PERDOMO CORAL1900-01-01R$ 3,6 mil
***046070**ADRIANA KESSLER1900-01-01R$ 3,4 mil
***179210**Leandro Ernesto Maia1900-01-01R$ 3,2 mil
***962400**ROBERTO SCHAAN FERREIRA1900-01-01R$ 3,0 mil
***968510**LEANDRO PAULSEN1900-01-01R$ 3,0 mil
***579650**REGINA MARIA ALBANUS FLORES1900-01-01R$ 3,0 mil
***974130**ROSANA DE OLIVEIRA SANTOS1900-01-01R$ 3,0 mil
***974190**Luis Antonio da Silva Machado1900-01-01R$ 3,0 mil
***551650**GAbriel Menna Barreto Von Gehlen1900-01-01R$ 3,0 mil
***442100**JULHARDO FIGUEIREDO1900-01-01R$ 3,0 mil
***477000**Andréia Silveira Athaydes1900-01-01R$ 3,0 mil
***770640**ORFILA LUIZA VIVIAN LEITE1900-01-01R$ 2,6 mil
***110890**João Claudio Sanches Pocos1900-01-01R$ 2,5 mil
***508250**Ronaldo João Spinato Torresini1900-01-01R$ 2,5 mil
***821380**ANTONIO CARLOS SILVA VIEIRA1900-01-01R$ 2,5 mil
***686850**ADRIANE VIEIRA1900-01-01R$ 2,0 mil
***041500**ANDRE LUIS DE OLIVEIRA1900-01-01R$ 2,0 mil
***045200**HELTON ESTIVALET BELLO1900-01-01R$ 2,0 mil
***126230**LEANDRO TIMM PIZUTTI1900-01-01R$ 2,0 mil
***149270**Luis Afonso Konzen1900-01-01R$ 2,0 mil
***194430**Mauro Cunha Ramos1900-01-01R$ 2,0 mil
***331630**LISANDRO SPOHR1900-01-01R$ 2,0 mil
***466300**Beatriz Bohrer Amaral1900-01-01R$ 2,0 mil
***571990**ALESSANDRO DONADIO MIEBACH1900-01-01R$ 2,0 mil
***598910**Leonid Streliaev1900-01-01R$ 2,0 mil
***829020**Kátia Terezinha Monaco Teixeira Lara1900-01-01R$ 2,0 mil
***881480**Cristina Brinckmann Oliveira Netto1900-01-01R$ 2,0 mil
***894470**Márcio Fleck da Silveira1900-01-01R$ 2,0 mil
***029810**LILIAN HEUSER1900-01-01R$ 1,9 mil
***603810**JOAO BELLINI JUNIOR1900-01-01R$ 1,9 mil
***911430**Vera Maria Santafe da Costa1900-01-01R$ 1,9 mil
***617040**Alvedomar Pasa Nunes1900-01-01R$ 1,8 mil
***136130**INES AMARO DA SILVA1900-01-01R$ 1,8 mil
***819030**LUIZ FERNANDO MAHLMANN HEINECK1900-01-01R$ 1,7 mil
***749660**ILDA SCHEFFER FERNANDES1900-01-01R$ 1,7 mil
***556680**Clotilde Druck Garcia1900-01-01R$ 1,6 mil
***587470**Plinio Spinatto Schereschewsky1900-01-01R$ 1,6 mil
***764620**JENIFER CASTELLAN DE OLIVEIRA1900-01-01R$ 1,5 mil
***898580**MARIA RENITA BURG FIGUEIREDO1900-01-01R$ 1,5 mil
***461690**CAROLINE RIBEIRO1900-01-01R$ 1,3 mil
***886430**VERA MARTINEZ KIRCHER1900-01-01R$ 1,2 mil
***661285**Maria Lucia Castagna Wortman1900-01-01R$ 1,2 mil
***640470**JOSE FERNANDO FERNANDEZ MARQUES1900-01-01R$ 1,2 mil
***679270**Circe Maria Jandrey1900-01-01R$ 1,1 mil
***269400**Valmira Trapp Fernandes1900-01-01R$ 1,1 mil
***860380**Marville Taffarel1900-01-01R$ 1,0 mil
***086970**Carmen Esther Rieth1900-01-01R$ 1,0 mil
***612850**MARIA LUCIA CASTAGNA WORTMANN1900-01-01R$ 1,0 mil
***005820**Carlos Alexandre Neto1900-01-01R$ 1,0 mil
***714130**VIRGINIA SILVEIRA FEDRIZZI1900-01-01R$ 1,0 mil
***216480**Mario Walter Wickert1900-01-01R$ 1,0 mil
***385119**VENILTON ANTONIO COLETTI1900-01-01R$ 1,0 mil
***349900**Valter Kuchenbecker1900-01-01R$ 1,0 mil
***933080**ANA ELEONORA SEBRAO ASSIS1900-01-01R$ 1,0 mil
***292052**MAXIMILIANO WOLFGRAMM SILVA1900-01-01R$ 1,0 mil
***858280**RESINA BOHRZ1900-01-01R$ 1,0 mil
***973860**CARMEN LUCIA SILVEIRA DE SOUZA1900-01-01R$ 960,00
***431510**SIMONE MAINIERI PAULON1900-01-01R$ 900,00
***462520**Erwin Francisco Tochtop Junior1900-01-01R$ 800,00
***759810**WALTER SCHINKE1900-01-01R$ 800,00
***165550**EDA ESTEVANELL TAVARES1900-01-01R$ 800,00
***964290**SUZANA VEIGA SCHONWALD1900-01-01R$ 800,00
***408950**Annelise Engel Gerbase1900-01-01R$ 600,00
***625550**MARIANNA DE ABREU COSTA1900-01-01R$ 500,00
***836360**UBALDO ALEXANDRE LICKS FLORES1900-01-01R$ 500,00
***525140**MARIA MARTA BORBA OROFINO1900-01-01R$ 500,00
***298540**MARCIA AMARAL CORREA DE MORAES1900-01-01R$ 500,00
***347200**LUIS CARLOS KREUSCH1900-01-01R$ 500,00
***030700**Adele Maria Piovesan1900-01-01R$ 500,00
***567050**MARCELO DA ROCHA VASCONCELLOS1900-01-01R$ 500,00
***627200**BIANCA GALANT BORGES1900-01-01R$ 500,00
***093180**ALVARO AGUIRRE TRINAISTICH1900-01-01R$ 500,00
***891050**Gilfredo Castagna1900-01-01R$ 400,00
***951930**Tiago Flores1900-01-01R$ 400,00
***625498**MARIA DE LOURDES JUSTI SCHINKE1900-01-01R$ 300,00
***875430**INGRID SILVA BARTH1900-01-01R$ 300,00
***480410**José Lesina Cesar1900-01-01R$ 250,00
***971959**DOUGLAS NUERNBERG DE MATOS1900-01-01R$ 150,00
***988350**LELAINE MARIA SCHUCH BOECKEL1900-01-01R$ 150,00
***270620**IRIS LIMA DE MORAES1900-01-01R$ 50,00

Eficiência de captação

100.0%

Classificação

Área
—
Segmento
Apresentação/Gravação de Música Erudita
Enquadramento
Artigo 18
Tipologia
Projetos normais
Ano
19

Localização e período

UF principal
RS
Município
Porto Alegre
Início
2019-10-25
Término

Resumo

Este projeto propõe a realização de concertos gratuitos da Orquestra de Câmara da ULBRA . Nos concertos serão apresentadas importantes obras do repertório erudito, abrangendo composições do período barroco ao contemporâneo, mesclando propostas de gêneros , incluindo a música brasileira.

Sinopse

Serão realizados concertos e no repertório, serão executadas composições do barroco ao contemporâneo. A orquestra irá executar obras de importantes compositores de diversas nacionalidades, como J.S. Bach, Corelli, Handel, W. A. Mozart, H Villa-Lobos, Mignone, Arhur Barbosa, Radamés Gnatalli, Piazolla e outros. O programa e o repertório de cada concerto serão definidos ao longo do projeto, bem como os solistas convidados para cada edição.

Objetivos

OBJETIVO GERAL Realizar 10 concertos em Porto Alegre sendo 09 apresentações gratuitas da Orquestra de Câmara da ULBRA OBJETIVOS ESPECÍFICOS - Realizar 01 concerto de lançamento do projeto no Theatro São Pedro; - Realizar uma temporada de 9 concertos na Sala Leopoldina Juvenil; - Contemplar aproximadamente 450 pessoas por apresentação, totalizando 4500 pessoas ao longo do projeto; - Democratizar o acesso à música erudita; - Oportunizar o intercâmbio de culturas através da apresentação de repertório entre o erudito, contemporâneo e clássicos de todos os gêneros; - Buscar a participação de solistas de renome nacional e internacional.

Justificativa

O Projeto de temporada de Concertos com a Orquestra de Câmara da ULBRA na Sala Leopoldina Juvenil, em Porto Alegre, existe desde 2003, consagrado pela crítica e público, com grande repercussão junto à comunidade riograndense. O conceito básico é a valorização e difusão da música erudita, tendo atualmente havido mesclas interessantes de clássicos de outros gêneros, com grande aceitação do público. A média de público por ano está em torno de 5200 espectadores. A cada concerto são convidados músicos de expressão no cenário cultural do Brasil e de outros países para apresentarem-se com a Orquestra de Câmara da ULBRA. Nesta dinâmica de conteúdo e forma é possível difundir a cultura musical do barroco ao contemporâneo, permitindo acesso a outras culturas, levando a música erudita, executada com excelência, a milhares de pessoas. Para citar alguns de nossos solistas de renome internacional destacamos o contrabaixista Michinori Bunya (Alemanha/Japão); o flautista Felix Renggli (Suíça), o clarinetista Gary Dranch (EUA), o trompetista André Henry (França), o compositor e instrumentista Egberto Gismonti (Brasil), o contra-tenor Paulo Mestre (Brasil), a pianista Olinda Alessandrini (Brasil) , o flautista brasileiro Rodrigo Calveyra radicado na França. A Orquestra também contou com os convidados: o violinista Carmelo de Los Santos (Brasil/EUA); o violoncelista Romain Garioud(França), o regente Ilya Stupel (Ucrânia), o Vocal Takt (Brasil) e o violinista Emerson Kretchmer. A Orquestra de Câmara da ULBRA é composta por músicos de alto nível técnico e tem como principal meta manter a excelência da execução e acabamento musical. Como reconhecimento do trabalho, o grupo tem sido considerado, pela crítica especializada, uma das melhores orquestras de câmara do Brasil. Cabe ressaltar que no ano de 2019 a Orquestra comemora seus 23 anos de existência, em que realiza anualmente concertos gratuitos ou a preço popular para um público estimado de 20 mil pessoas ao ano, circulando por aproximadamente 15 cidades do interior do estado a cada ano, contribuindo diretamente na democratização de acesso a cultura do nosso estado. O projeto contribui sobremaneira para o desenvolvimento da música erudita no Rio Grande do Sul, proporcionando espetáculos inesquecíveis, e apresentando ao público um pouco da história da música por meio de composições de estilos que transitam entre o Barroco e o Contemporâneo. Ao longo do projeto, serão realizados 09 concertos com entrada franca, democratizando o acesso do público à música erudita e permitindo o acesso de diferentes classes sociais, idades e níveis culturais. Também será realizado um cocnerto de lançamento do projeto no Teatro São Pedro com cobrança de ingresso a preços populares.

Acessibilidade

Os locais já definidos para as apresentações em Porto Alegre (Theatro São Pedro e Sala Leopoldina) atendem as determinações legais de acessibilidade para deficientes físicos. Visando inclusão de deficientes auditivos, será oferecido o programa impresso com o descritivo do projeto, bem como as obras a serem apresentadas. Quando pertinente, haverá intérprete de libras. Para o público deficiente visual haverá áudiodescrição.

Democratização do acesso

Nove apresentações serão gratuitas e uma apresentação terá venda de ingressos a preços populares. O projeto busca contemplar 4500 espectadores ao fim de sua execução, de diferentes classes sociais, idades e níveis culturais. Os concertos serão gravados e disponibilizados gratuitamente no nosso canal do Youtube. Os registros videográficos serão disponibilizados no canal do youtube, visando atender maior número de espectadores, bem como democratizando o acesso, atendendo o previsto na IN 02/2019, art. 21, inc III As ofiicinas para crianças de projetos sociais serão gratuitas, atendendo a IN 02/2019, art 21, inc IV

Ficha técnica

Ficha técnica Proponente: Associação dos Amigos da Orquestra de Câmara da ULBRA- responsável pela realização do projeto Responsável técnico: Maestro Tiago Flores Coordenação geral: Maria Margareth Heineck A Associação dos Amigos da Orquestra de Câmara da ULBRA, é a responsável por todas as etapas do projeto. Desde sua concepção, definição de atividades, definição de repertório, captação, contatos com prefeituras, pagamentos, conciliação bancária, contratação de profissionais, administração geral e prestação de contas final. ASSOCIAÇÃO DOS AMIGOS DA ORQUESTRA DE CÂMAR DA ULBRA A Associação dos Amigos da Orquestra de Câmara da ULBRA – AAOCULBRA , é uma associação cultural, sem fins lucrativos ou econômicos, cujos objetivos sociais são a promoção do desenvolvimento cultural através de diversas manifestações artísticas, em especial, as atividades da Orquestra de Câmara da ULBRA. A criação da AAOCULBRA deu-se em agosto de 2010 e que abriu novas perspectivas de trabalho e disseminação da cultura através de contratações e apresentações de projetos junto às leis de incentivo à cultura estaduais e federais, haja vista a constituição da pessoa jurídica que respalda sua atuação legal. Desde sua criação, a Associação é a realizadora de todas as atividades da Orquestra. Orquestra de Câmara da ULBRA (www.ulbra.br/orquestra) A Orquestra de Câmara da ULBRA foi criada em julho de 1996, com o intuito de somar-se às iniciativas da universidade nas áreas da cultura e dos programas comunitários. Desde então, a Orquestra desenvolve vários projetos: Concertos da Temporada, Música nos Campi e apresentações em eventos culturais. Tem como principal objetivo manter a excelência da execução e o alto nível de acabamento musical. Como reconhecimento deste trabalho, o grupo tem sido considerado, pela crítica especializada, uma das melhores orquestras de câmara do Brasil. Na série Concertos da Temporada, realizados mensalmente, a Orquestra já contou com a participação de solistas de renome internacional como o contrabaixista Michinori Bunya (Alemanha/Japão), o flautista Felix Renggli (Suíça), o clarinetista Gary Dranch (EUA), o trompetista André Henry (França), o violinista Lavard Skou-Larsen (Áustria), os violonistas Eduardo Castañera e Daniel Wolff, o violoncelista Romain Garrioud(França), o oboísta Luis Carlos Justi(RJ), o pianista Ney Fialkow e o violinista Cármelo de los Santos, pianista Alexandre Dossin(Brasil/EUA), o violinista François Sochard(França), o compositor e instrumentista Egberto Gismonti(Brasil), o contra-tenor Paulo Mestre(Brasil), os cravistas Marcelo Fagerlande, Rosana Lanzelotte e Marcos Holler (Brasil) entre outros. No repertório da Orquestra de Câmara da ULBRA constam as principais obras de música erudita compostas para instrumentos de cordas, abrangendo do período barroco até o contemporâneo. Destacam-se As Quatro Estações de Vivaldi e as Serenatas para Cordas de Tchaikovsky e Dvorák, também as mais importantes obras sacras como Paixão Segundo São João e Oratório de Natal de Bach, O Messias de Haendel e Requiem de Mozart. Outras vertentes importantes do trabalho deste conjunto são a música latino-americana e a música brasileira, sendo esta motivo de freqüente pesquisa e inclusão de novas obras ou lançamento de novos compositores na sua programação. O grupo é responsável pela estréia de diversas peças originais e arranjos especialmente compostas para o mesmo. Também é marcante a performance deste ensemble nos tangos de Astor Piazzolla, como Las Cuatro Estaciones Porteñas, Melancólico Buenos Aires e María de Buenos Aires. No tocante a projetos de diversificação e divulgação da música orquestral, o grupo apresentou-se com Edu Lobo, Nei Lisboa, Renato Borghetti, Neto Fagundes, Vitor Ramil, Kleiton & Kledir, Yamandú Costa , Frank Solari, Nenhum de Nós, Papas da Língua, Hique Gomes, Bebeto Alves, Jerônimo Jardim, Gaúcho da Fronteira, Ernesto Fagundes, Banda Ultramen, Adriana Deffenti e Pedro Veríssimo, além de realizar inúmeras apresentações pelo interior do Rio Grande do Sul. A série Música nos Campi consiste de concertos especialmente voltados para universitários, numa abordagem mais leve e com cunho mais didático. Em turnê pela Argentina o conjunto recebeu do jornal La Nación crítica extremamente positiva destacando que a orquestra "alcançou um nível de excelência a serviço do repertório clássico e da frondosa literatura musical do país irmão(Brasil)", e sintetiza: "Nuestra opinión: excelente". A Orquestra de Câmara da ULBRA realiza, anualmente, 30 concertos, cobrindo diversos eventos em nosso estado, atraindo diretamente mais de 20 mil pessoas. Em março de 2006 seu CD foi premiado com o Troféu Açorianos de melhor interprete de música instrumental. Maestro Tiago Flores Tiago Flores é graduado pela Universidade Federal do Rio Grande do Sul sob a orientação de Arlindo Teixeira. Especializou-se em regência orquestral em São Petersburgo (Rússia) com Victor Fedotov. Participou de cursos, oficinas e festivais com Kurt Redel (Alemanha) e Lutero Rodrigues e venceu o concurso Jovens Regentes promovido pela Orquestra Sinfônica de Porto Alegre (OSPA). Como regente convidado atuou à frente de orquestras como Filarmonica de Montevidéu (Uruguai), Orquestra de Câmara de Caracas (Venezuela), Orquestra Sinfônica do Estado do México (México), Solistas di Napoli (Itália), Orquestra Sinfônica de Grosseto (Itália), Kaerten Sinphonie Orchestra (Áustria) e Orquestra de Câmara da Lituânia. No Brasil regeu a Orquestra Sinfônica do Teatro Nacional (Brasília), Orquestra Sinfônica do Paraná, Orquestra Sinfônica da Bahia, Orquestra Sinfônica de Campinas, Orquestra de Câmara de Blumenau, Orquestra Sinfônica da UCS, Orquestra de Câmara Eleazar de Carvalho (Fortaleza) e Orquestra Sinfônica do Mato Grosso. Foi diretor artístico da OSPA nos anos de 1999 a 2001 e 2011 a 2014. Regente da Orquestra de Câmara da ULBRA desde sua fundação, vem recebendo inúmeros elogios da crítica especializada, destacando-se como grande incentivador da nova música e tendo contribuído, em muito, para o reconhecimento do conjunto como um dos melhores do gênero no país. Recebeu o prêmio Melhores da Cultura 2005, conferido pela Secretaria da Cultura do Estado do Rio Grande do Sul, prêmio Açorianos de Melhor CD Instrumental em 2006, e premio Açorianos de Melhor Espetáculo 2008 com o Show "Beatles - Magical Classical Tour”. Maria Margareth Heineck Função: Coordenação de produção, executora do projeto e responsável pela prestação de contas sob supervisão da assessoria contábil. Coordenadora de Cultura Universidade Luterana do Brasil, tesoureira e secretária da Associação dos Amigos da Orquestra de Câmara da ULBRA desde 2010, formada em Relações Públicas e especialista em Marketing, com 20 anos de experiência em realização de eventos sociais, motivacionais e integradores das mais diversas áreas, para os mais diversos públicos, em nível regional e nacional. Como sócia de empresa atuou com planejamento estratégico, pesquisa, projetos de comunicação, clima organizacional com objetivo de alavancagem de negócios e satisfação dos diversos públicos.

Providência

DILIGÊNCIA RESPONDIDA PELO PROPONENTE, ESPERANDO DECISÃO.

2022-09-30
Locais de realização (1)
Porto Alegre Rio Grande do Sul